Weather Roundup
Issued by NWS

Home | Current Version | Previous Version | Text Only | Print | Product List | Glossary On
Versions: 1 2 3 4 5 6 7 8 9 10 11 12 13 14 15 16 17 18 19 20 21 22 23 24 25 26 27 28 29 30 31 32 33 34 35 36 37 38 39 40 41 42 43 44 45 46 47 48 49 50
000
NZUS93 KARX 281710
HRRWXR

CURRENT HOURLY OBSERVATIONS ACROSS
MUCH OF THE UPPER MISSISSIPPI VALLEY
NATIONAL WEATHER SERVICE LA CROSSE WI
1200 PM CDT FRI AUG 28 2015


...SOUTHEAST MINNESOTA...


CITY           SKY/WX    TMP DP  RH WIND       PRES   REMARKS
ROCHESTER      LGT RAIN  64  62  93 SE12      30.04F
ROCHESTER/MAYO CLOUDY    64  64 100 E10       30.02F
WINONA         RAIN      63  63 100 SE5       30.06F
AUSTIN         LGT RAIN  63  61  94 E13       30.01R
ALBERT LEA     DRIZZLE   63  63 100 E10       30.00R
DODGE CENTER   LGT RAIN  64  63  94 E9        30.01F
PRESTON        LGT RAIN  61  57  87 E9G18     30.05F
OWATONNA       CLOUDY    68  63  83 SE12G17   30.00F
FARIBAULT      DRIZZLE   70  64  83 SE12G17   30.00R
$$

...ELSEWHERE IN MINNESOTA...


CITY           SKY/WX    TMP DP  RH WIND       PRES   REMARKS
MINNEAPOLIS    CLOUDY    70  63  78 SE12      30.00F
INTNL FALLS    LGT RAIN  67  65  93 SW14G22   29.89F
DULUTH         PTSUNNY   70  62  76 SW15      29.98F
RED WING       LGT RAIN  66  64  94 E8        30.01S
REDWOOD FALLS  PTSUNNY   73  63  70 SE18G24   29.98R
MANKATO        PTSUNNY   70  61  73 SE15      29.99R
WORTHINGTON    CLOUDY    64  59  82 E16G26    29.96S
FAIRMONT       CLOUDY    64  59  82 E12G18    29.98R
$$

...SOUTHWEST WISCONSIN...


CITY           SKY/WX    TMP DP  RH WIND       PRES   REMARKS
LA CROSSE      LGT RAIN  65  62  90 S10       30.09S FOG
PRAIRIE DU CHI RAIN      63  60  90 CALM      30.11S
BOSCOBEL       LGT RAIN  66  62  87 CALM      30.11S
LONE ROCK      LGT RAIN  64  60  87 SE3       30.13F
PLATTEVILLE    CLOUDY    64  62  93 SE3       30.13S
FORT MC COY    DRIZZLE   65  61  89 S5        30.11S
CAMP DOUGLAS   LGT RAIN  66  66 100 S7        30.11S
VIROQUA        CLOUDY    63  63 100 CALM      30.11F
WIS DELLS      CLOUDY    65  57  77 SW5       30.13S
$$

...ELSEWHERE IN WISCONSIN...


CITY           SKY/WX    TMP DP  RH WIND       PRES   REMARKS
MILWAUKEE      CLOUDY    73  59  61 VRB7      30.13S
MADISON        LGT RAIN  65  58  78 S3        30.13S
GREEN BAY      CLOUDY    71  61  70 SW10      30.10F
EAU CLAIRE     LGT RAIN  64  61  90 SE6       30.06S
BLACK RVR FLS  LGT RAIN  64  64 100 CALM      30.09S
MEDFORD        CLOUDY    64  60  88 SW8       30.10S
WAUSAU         CLOUDY    67  60  78 W7        30.08F
WIS RAPIDS     LGT RAIN  65  60  84 SW6       30.12S
MARSHFIELD     LGT RAIN  65  59  81 SW7       30.10S
RICE LAKE      CLOUDY    68  62  80 S3        30.07S
$$

...NORTHEAST IOWA...


CITY           SKY/WX    TMP DP  RH WIND       PRES   REMARKS
DECORAH        LGT RAIN  61  61 100 SE9       30.09R
MASON CITY     HVY RAIN  61  59  93 SE14G26   30.01R FOG
CHARLES CITY   LGT RAIN  59  59 100 E22G28    29.98F
OELWEIN        LGT RAIN  61  61 100 SE8       30.08S
$$

...ELSEWHERE IN IOWA...


CITY           SKY/WX    TMP DP  RH WIND       PRES   REMARKS
DES MOINES     LGT RAIN  67  62  84 SE17      29.92F
IOWA CITY      LGT RAIN  66  60  81 SE8       30.07F
FORT DODGE     CLOUDY    63  59  88 SE15G23   29.91S
$$

...NORTHERN ILLINOIS...


CITY           SKY/WX    TMP DP  RH WIND       PRES   REMARKS
CHICAGO-OHARE  CLOUDY    71  59  65 SW9       30.14S
CHICAGO-MIDWAY CLOUDY    74  60  61 S7        30.15S
MOLINE         CLOUDY    68  61  78 SE7       30.10S
ROCKFORD       CLOUDY    68  60  75 S6        30.15S
PEORIA         CLOUDY    74  61  63 SE8       30.12F
$$

NOTE: "FAIR" INDICATES FEW OR NO CLOUDS BELOW 12,000 FEET WITH NO
SIGNIFICANT WEATHER AND/OR OBSTRUCTIONS TO VISIBILITY. WIND
SPEEDS ARE IN MILES-PER-HOUR.



USA.gov is the U.S. government's official web portal to all federal, state and local government web resources and services.